EN

Hourly Weather Trzciany

Today, 17 April, Saturday

Time Temperature Precipitation Wind Pressure Humidity
00:00 +3°C° 0 mm 3 mps 752 mmHg 90%
01:00 +4°C° 0 mm 2 mps 752 mmHg 92%
02:00 +5°C° 0 mm 2 mps 752 mmHg 92%
03:00 +5°C° 0 mm 2 mps 752 mmHg 92%
04:00 +4°C° 0 mm 3 mps 752 mmHg 92%
05:00 +5°C° 0 mm 3 mps 752 mmHg 91%
06:00 +5°C° 0 mm 3 mps 752 mmHg 89%
07:00 +7°C° 0 mm 3 mps 752 mmHg 89%
08:00 +8°C° 0 mm 4 mps 752 mmHg 82%
09:00 +10°C° 0 mm 4 mps 752 mmHg 75%
10:00 +12°C° 0 mm 5 mps 752 mmHg 68%
11:00 +13°C° 0.2 mm 5 mps 752 mmHg 63%
12:00 +14°C° 0.2 mm 5 mps 752 mmHg 59%
13:00 +14°C° 0 mm 4 mps 752 mmHg 55%
14:00 +13°C° 0.3 mm 4 mps 752 mmHg 59%
15:00 +13°C° 0.3 mm 4 mps 752 mmHg 63%
16:00 +12°C° 0.3 mm 3 mps 752 mmHg 68%
17:00 +11°C° 0.1 mm 3 mps 752 mmHg 73%
18:00 +10°C° 0.1 mm 4 mps 753 mmHg 78%
19:00 +8°C° 0.1 mm 4 mps 753 mmHg 84%
20:00 +9°C° 0.1 mm 3 mps 753 mmHg 87%
21:00 +8°C° 0.1 mm 3 mps 753 mmHg 90%
22:00 +7°C° 0.1 mm 3 mps 753 mmHg 93%
23:00 +7°C° 0 mm 3 mps 753 mmHg 93%

Tomorrow, 18 April, Sunday

Time Temperature Precipitation Wind Pressure Humidity
00:00 +5°C° 0 mm 3 mps 753 mmHg 93%
01:00 +5°C° 0 mm 3 mps 753 mmHg 94%
02:00 +5°C° 0 mm 3 mps 753 mmHg 94%
03:00 +5°C° 0 mm 3 mps 753 mmHg 95%
04:00 +5°C° 0 mm 3 mps 753 mmHg 95%
05:00 +5°C° 0 mm 3 mps 753 mmHg 93%
06:00 +7°C° 0 mm 3 mps 753 mmHg 90%
07:00 +8°C° 0 mm 3 mps 753 mmHg 88%
08:00 +9°C° 0 mm 3 mps 753 mmHg 84%
09:00 +10°C° 0 mm 4 mps 753 mmHg 80%
10:00 +10°C° 0 mm 4 mps 753 mmHg 75%
11:00 +11°C° 0.1 mm 4 mps 753 mmHg 72%
12:00 +12°C° 0.1 mm 4 mps 753 mmHg 68%
13:00 +12°C° 0.1 mm 4 mps 753 mmHg 64%
14:00 +12°C° 0.1 mm 4 mps 753 mmHg 67%
15:00 +12°C° 0.1 mm 4 mps 753 mmHg 69%
16:00 +11°C° 0.1 mm 4 mps 753 mmHg 71%
17:00 +10°C° 0 mm 4 mps 753 mmHg 77%
18:00 +9°C° 0 mm 3 mps 754 mmHg 82%
19:00 +8°C° 0 mm 3 mps 754 mmHg 87%
20:00 +8°C° 0 mm 2 mps 754 mmHg 89%
21:00 +8°C° 0 mm 2 mps 754 mmHg 91%
22:00 +7°C° 0 mm 2 mps 754 mmHg 93%
23:00 +9°C° 0 mm 1 mps 754 mmHg 93%

Day after tomorrow, 19 April, Monday

Time Temperature Precipitation Wind Pressure Humidity
00:00 +9°C° 0 mm 1 mps 754 mmHg 93%
01:00 +9°C° 0 mm 1 mps 754 mmHg 92%
02:00 +9°C° 0 mm 1 mps 754 mmHg 93%
03:00 +8°C° 0 mm 2 mps 753 mmHg 93%
04:00 +8°C° 0 mm 2 mps 753 mmHg 94%
05:00 +8°C° 0 mm 2 mps 753 mmHg 93%
06:00 +8°C° 0 mm 2 mps 753 mmHg 91%
07:00 +9°C° 0 mm 2 mps 753 mmHg 90%
08:00 +9°C° 0 mm 2 mps 753 mmHg 87%
09:00 +10°C° 0 mm 3 mps 753 mmHg 84%
10:00 +10°C° 0 mm 3 mps 753 mmHg 80%
11:00 +12°C° 0.1 mm 3 mps 753 mmHg 74%
12:00 +13°C° 0.1 mm 3 mps 753 mmHg 68%
13:00 +14°C° 0.1 mm 3 mps 753 mmHg 63%
14:00 +14°C° 0.3 mm 3 mps 752 mmHg 60%
15:00 +16°C° 0.3 mm 3 mps 752 mmHg 57%
16:00 +16°C° 0.3 mm 3 mps 752 mmHg 54%
17:00 +13°C° 0.1 mm 3 mps 752 mmHg 60%
18:00 +13°C° 0.1 mm 2 mps 752 mmHg 66%
19:00 +12°C° 0.1 mm 2 mps 752 mmHg 73%
20:00 +10°C° 0.1 mm 2 mps 752 mmHg 75%
21:00 +10°C° 0.1 mm 2 mps 752 mmHg 78%
22:00 +9°C° 0.1 mm 2 mps 752 mmHg 80%
23:00 +9°C° 0 mm 2 mps 752 mmHg 81%

20 April, Tuesday

Time Temperature Precipitation Wind Pressure Humidity
00:00 +9°C° 0 mm 2 mps 752 mmHg 81%
01:00 +10°C° 0 mm 1 mps 752 mmHg 82%
02:00 +9°C° 0 mm 1 mps 751 mmHg 82%
03:00 +8°C° 0 mm 2 mps 751 mmHg 82%
04:00 +8°C° 0 mm 2 mps 751 mmHg 82%
05:00 +8°C° 0 mm 2 mps 751 mmHg 81%
06:00 +8°C° 0 mm 2 mps 751 mmHg 80%
07:00 +8°C° 0 mm 2 mps 751 mmHg 79%
08:00 +9°C° 0 mm 2 mps 751 mmHg 71%
09:00 +10°C° 0 mm 2 mps 751 mmHg 64%
10:00 +12°C° 0 mm 2 mps 751 mmHg 57%
11:00 +12°C° 0 mm 2 mps 751 mmHg 55%
12:00 +12°C° 0 mm 2 mps 750 mmHg 53%
13:00 +13°C° 0 mm 1 mps 750 mmHg 52%
14:00 +12°C° 0 mm 1 mps 750 mmHg 53%
15:00 +12°C° 0 mm 1 mps 750 mmHg 54%
16:00 +12°C° 0 mm 1 mps 749 mmHg 55%
17:00 +12°C° 0 mm 1 mps 749 mmHg 57%
18:00 +10°C° 0 mm 2 mps 749 mmHg 60%
19:00 +9°C° 0 mm 2 mps 749 mmHg 63%
20:00 +10°C° 0 mm 1 mps 749 mmHg 65%
21:00 +9°C° 0 mm 1 mps 749 mmHg 67%
22:00 +8°C° 0 mm 1 mps 749 mmHg 70%
23:00 +8°C° 0 mm 1 mps 748 mmHg 70%

21 April, Wednesday

Time Temperature Precipitation Wind Pressure Humidity
00:00 +8°C° 0 mm 1 mps 748 mmHg 70%
01:00 +8°C° 0 mm 1 mps 748 mmHg 71%
02:00 +8°C° 0 mm 1 mps 748 mmHg 72%
03:00 +8°C° 0 mm 1 mps 747 mmHg 73%
04:00 +8°C° 0 mm 1 mps 747 mmHg 74%
05:00 +8°C° 0.9 mm 1 mps 747 mmHg 78%
06:00 +8°C° 0.9 mm 1 mps 747 mmHg 82%
07:00 +8°C° 0.9 mm 1 mps 747 mmHg 87%
08:00 +8°C° 0.7 mm 1 mps 746 mmHg 86%
09:00 +8°C° 0.7 mm 1 mps 746 mmHg 85%
10:00 +8°C° 0.7 mm 2 mps 746 mmHg 84%
11:00 +9°C° 0.1 mm 2 mps 746 mmHg 80%
12:00 +9°C° 0.1 mm 2 mps 746 mmHg 76%
13:00 +11°C° 0.1 mm 1 mps 745 mmHg 72%
14:00 +12°C° 0.2 mm 2 mps 745 mmHg 70%
15:00 +11°C° 0.2 mm 3 mps 745 mmHg 68%
16:00 +11°C° 0.2 mm 4 mps 745 mmHg 66%
17:00 +10°C° 0 mm 4 mps 745 mmHg 70%
18:00 +9°C° 0 mm 3 mps 745 mmHg 75%
19:00 +8°C° 0 mm 3 mps 745 mmHg 80%
20:00 +7°C° 0.2 mm 3 mps 746 mmHg 83%
21:00 +5°C° 0.2 mm 4 mps 746 mmHg 86%
22:00 +4°C° 0.2 mm 4 mps 747 mmHg 89%
23:00 +3°C° 0.1 mm 3 mps 747 mmHg 91%

22 April, Thursday

Time Temperature Precipitation Wind Pressure Humidity
00:00 +3°C° 0.1 mm 3 mps 747 mmHg 92%
01:00 +3°C° 0.1 mm 2 mps 747 mmHg 94%
02:00 +3°C° 0 mm 2 mps 748 mmHg 94%
03:00 +2°C° 0 mm 2 mps 748 mmHg 95%
04:00 +2°C° 0 mm 2 mps 748 mmHg 95%
05:00 +1°C° 0 mm 3 mps 749 mmHg 90%
06:00 +2°C° 0 mm 3 mps 749 mmHg 86%
07:00 +2°C° 0 mm 3 mps 750 mmHg 81%
08:00 +4°C° 0 mm 3 mps 750 mmHg 72%
09:00 +5°C° 0 mm 3 mps 750 mmHg 63%
10:00 +7°C° 0 mm 3 mps 751 mmHg 54%
11:00 +7°C° 0.1 mm 3 mps 751 mmHg 52%
12:00 +8°C° 0.1 mm 3 mps 751 mmHg 50%
13:00 +8°C° 0.1 mm 3 mps 752 mmHg 47%
14:00 +8°C° 0.1 mm 3 mps 752 mmHg 48%
15:00 +8°C° 0.1 mm 3 mps 752 mmHg 49%
16:00 +8°C° 0.1 mm 2 mps 752 mmHg 49%
17:00 +7°C° 0.1 mm 2 mps 753 mmHg 55%
18:00 +6°C° 0.1 mm 2 mps 753 mmHg 61%
19:00 +6°C° 0.1 mm 1 mps 753 mmHg 67%
20:00 +5°C° 0 mm 1 mps 754 mmHg 72%
21:00 +4°C° 0 mm 2 mps 754 mmHg 77%
22:00 +3°C° 0 mm 2 mps 755 mmHg 82%
23:00 +3°C° 0 mm 2 mps 755 mmHg 85%
Show more

We Need Your Consent

Meteoprog and our Service Providers may store and access personal data such as cookies, device identifiers or other similar technologies on your device and process such data to personalise content and ads, as well as provide social media features and to analyse the traffic.

  • Store and/or access information on your device

    Cookies, device identifiers or other information can be stored or accessed on your device for the purposes indicated above.

  • Personalised ads and content, ad and content measurement, audience insights, and products development

    Ads and content can be personalised based on a profile. More data can be added to better personalise ads and content. Ad and content performance can be measured. Insights about the audience who saw the ads and content can be derived. Such data can be used to develop or improve user’s experience, systems and software.

By clicking ‘I Agree’ you will allow the use of indicated cookies, device identifiers, web beacons or other similar technologies. Your settings can be changed in the browser on your device.

For certain purposes, legitimate interests may be relied on, rather than consent. You can read more about this in our Privacy and Cookie Policy.